This demonstration page uses our WeatherBlox Daily Observations layout. Learn more.

Left ArrowRight Arrow

39.12711, -84.51439

Hourly Observations for August 20, 2022

Temp ( °F °C ) Dew Point ( °F °C ) Humidity (%) Winds ( mph kmh ) Pressure ( in mb ) Visibility ( mi km ) Precip ( " mm )
12:53 am 00:53 Cloudy with Mist and Fog 66 18.9 65 18.3 96 96 Calm 30.02 1017 6 10 0.00 0.00
1:53 am 01:53 Mostly Cloudy with Mist and Fog 67 19.4 66 18.9 97 97 Calm 30.03 1017 5 8 0.00 0.00
2:35 am 02:35 Clear with Mist and Fog 66 18.9 65 18.3 96 96 Calm 30.04 1017 3 4 0.00 0.00
2:53 am 02:53 Mostly Clear with Mist and Fog 65 18.3 64 17.8 97 97 Calm 30.04 1017 4 6 0.00 0.00
3:14 am 03:14 Partly Cloudy with Mist and Fog 65 18.3 64 17.8 97 97 Calm 30.03 1017 3 5 0.00 0.00
3:53 am 03:53 Clear with Mist and Fog 65 18.3 64 17.8 97 97 Calm 30.03 1017 3 5 0.00 0.00
4:02 am 04:02 Clear with Mist and Fog 64 17.8 64 17.8 100 100 Calm 30.03 1017 3 4 0.00 0.00
4:10 am 04:10 Clear with Mist and Fog 65 18.3 64 17.8 97 97 Calm 30.03 1017 3 5 0.00 0.00
4:53 am 04:53 Clear with Mist and Fog 64 17.8 63 17.2 96 96 Calm 30.03 1017 2 3 0.00 0.00
5:11 am 05:11 Clear with Mist and Fog 64 17.8 64 17.8 100 100 Calm 30.03 1017 3 5 0.00 0.00
5:16 am 05:16 Clear with Mist and Fog 64 17.8 64 17.8 100 100 Calm 30.04 1017 2 2 0.00 0.00
5:24 am 05:24 Clear with Fog 64 17.8 63 17.2 96 96 Calm 30.04 1017 1 1 0.00 0.00
5:34 am 05:34 Clear with Mist and Fog 64 17.8 63 17.2 96 96 Calm 30.04 1017 2 3 0.00 0.00
5:43 am 05:43 Clear with Mist and Fog 64 17.8 63 17.2 96 96 Calm 30.04 1017 2 2 0.00 0.00
5:53 am 05:53 Partly Cloudy with Mist and Fog 63 17.2 63 17.2 100 100 Calm 30.04 1017 1 2 0.00 0.00
6:06 am 06:06 Mostly Cloudy with Mist and Fog 64 17.8 63 17.2 96 96 Calm 30.04 1017 3 4 0.00 0.00
6:13 am 06:13 Partly Cloudy with Mist and Fog 64 17.8 64 17.8 100 100 Calm 30.04 1017 3 5 0.00 0.00
6:24 am 06:24 Mostly Clear with Mist and Fog 64 17.8 63 17.2 96 96 Calm 30.04 1017 3 4 0.00 0.00
6:34 am 06:34 Partly Cloudy with Mist and Fog 64 17.8 63 17.2 96 96 Calm 30.05 1018 3 5 0.00 0.00
6:41 am 06:41 Mostly Cloudy with Mist and Fog 64 17.8 63 17.2 96 96 Calm 30.05 1018 2 3 0.00 0.00
6:53 am 06:53 Mostly Cloudy with Mist and Fog 64 17.8 63 17.2 96 96 Calm 30.05 1018 6 10 0.00 0.00
7:53 am 07:53 Partly Cloudy with Mist and Fog 66 18.9 64 17.8 93 93 Calm 30.05 1018 6 10 0.00 0.00
8:53 am 08:53 Sunny 72 22.2 68 20 87 87 SSW 5 7 30.07 1018 7 11 0.00 0.00
9:53 am 09:53 Sunny 75 23.9 68 20 79 79 SSE 5 7 30.07 1018 9 14 0.00 0.00
10:53 am 10:53 Partly Cloudy 77 25 69 20.6 77 77 S 5 7 30.09 1019 10 16 0.00 0.00
11:53 am 11:53 Mostly Sunny 80 26.7 71 21.7 74 74 SE 8 13 30.07 1018 10 16 0.00 0.00
12:53 pm 12:53 Partly Cloudy 82 27.8 71 21.7 69 69 S 6 9 30.06 1018 10 16 0.00 0.00
1:53 pm 13:53 Mostly Cloudy 83 28.3 70 21.1 65 65 S 9 15 30.03 1017 10 16 0.00 0.00
2:14 pm 14:14 Mostly Cloudy with Thunderstorms 86 30 71 21.7 61 61 S 8 13 30.00 1016 10 16 0.00 0.00
2:37 pm 14:37 Partly Cloudy 85 29.4 71 21.7 63 63 SE 5 7 29.99 1016 10 16 0.00 0.00
2:53 pm 14:53 Mostly Cloudy 84 28.9 69 20.6 61 61 SSW 10 17 30.01 1016 10 16 0.00 0.00
3:29 pm 15:29 Partly Cloudy with Thunderstorms 82 27.8 68 20 63 63 S 9 15 29.98 1015 8 13 0.01 0.13
3:58 pm 15:58 Cloudy with Strong Thunderstorms 72 22.2 68 20 87 87 N 16 26 30.03 1017 0 0 0.05 1.27
4:03 pm 16:03 Cloudy with Thunderstorms 72 22.2 69 20.6 91 91 NNW 8 13 30.01 1016 1 2 0.05 1.27
4:11 pm 16:11 Cloudy with Nearby Thunderstorms 73 22.8 69 20.6 87 87 S 8 13 30.01 1016 4 6 0.05 1.27
4:53 pm 16:53 Sunny 79 26.1 69 20.6 72 72 Calm 29.99 1016 10 16 0.05 1.27
5:53 pm 17:53 Mostly Cloudy with Nearby Thunderstorms 77 25 70 21.1 79 79 NE 3 6 29.99 1016 6 10 0.00 0.00
6:53 pm 18:53 Mostly Cloudy with Light Rain 74 23.3 73 22.8 97 97 Calm 30.00 1016 8 13 0.01 0.13
7:24 pm 19:24 Cloudy with Thunderstorms 72 22.2 68 20 87 87 W 12 19 30.01 1016 6 10 0.03 0.76
7:53 pm 19:53 Cloudy with Thunderstorms 72 22.2 67 19.4 84 84 Calm 30.00 1016 6 10 0.05 1.27
8:05 pm 20:05 Partly Cloudy with Light Rain 72 22.2 66 18.9 82 82 NW 3 6 29.98 1015 10 16 0.01 0.13
8:53 pm 20:53 Mostly Clear 70 21.1 69 20.6 97 97 Calm 30.00 1016 8 13 0.01 0.13
9:53 pm 21:53 Partly Cloudy with Mist and Fog 69 20.6 69 20.6 100 100 Calm 30.02 1017 6 10 0.00 0.00
10:53 pm 22:53 Clear with Mist and Fog 68 20 68 20 100 100 Calm 30.02 1017 4 6 0.00 0.00
11:53 pm 23:53 Mostly Clear with Mist and Fog 68 20 68 20 100 100 Calm 30.01 1016 6 10 0.00 0.00

Powered by AerisWeather